TimeCEST,TemperatureF,Dew PointF,Humidity,Sea Level PressureIn,VisibilityMPH,Wind Direction,Wind SpeedMPH,Gust SpeedMPH,PrecipitationIn,Events,Conditions,WindDirDegrees,DateUTC
6:00 AM,51.8,51.8,100,30.01,6.2,North,3.5,-,N/A,,Scattered Clouds,350,2012-10-12 04:00:00
6:30 AM,50.0,50.0,100,30.01,6.2,North,5.8,-,N/A,,Scattered Clouds,360,2012-10-12 04:30:00
7:00 AM,50.0,46.4,87,30.04,6.2,North,4.6,-,N/A,,Scattered Clouds,10,2012-10-12 05:00:00
7:30 AM,46.4,44.6,93,30.04,6.2,North,5.8,-,N/A,,Scattered Clouds,10,2012-10-12 05:30:00
8:00 AM,46.4,44.6,93,30.04,6.2,NNE,4.6,-,N/A,,Partly Cloudy,20,2012-10-12 06:00:00
8:30 AM,46.4,46.4,100,30.04,6.2,NE,4.6,-,N/A,,Partly Cloudy,50,2012-10-12 06:30:00
9:00 AM,46.4,46.4,100,30.06,6.2,ENE,6.9,-,N/A,,Partly Cloudy,70,2012-10-12 07:00:00
9:30 AM,50.0,48.2,94,30.06,6.2,ENE,6.9,-,N/A,,Partly Cloudy,70,2012-10-12 07:30:00
10:00 AM,51.8,50.0,94,30.06,6.2,East,8.1,-,N/A,,Partly Cloudy,80,2012-10-12 08:00:00
11:00 AM,53.6,48.2,82,30.09,6.2,ENE,11.5,-,N/A,,Partly Cloudy,70,2012-10-12 09:00:00
11:30 AM,55.4,46.4,72,30.09,6.2,NE,11.5,-,N/A,,Partly Cloudy,50,2012-10-12 09:30:00
12:00 PM,57.2,46.4,67,30.09,6.2,NE,10.4,-,N/A,,Scattered Clouds,50,2012-10-12 10:00:00
12:30 PM,57.2,46.4,67,30.09,6.2,NNE,11.5,-,N/A,,Scattered Clouds,30,2012-10-12 10:30:00
1:00 PM,57.2,46.4,67,30.09,6.2,NE,10.4,-,N/A,,Scattered Clouds,40,2012-10-12 11:00:00
1:30 PM,59.0,46.4,63,30.09,6.2,NE,8.1,-,N/A,,Scattered Clouds,50,2012-10-12 11:30:00
2:00 PM,59.0,44.6,59,30.09,6.2,ENE,4.6,-,N/A,,Mostly Cloudy,70,2012-10-12 12:00:00
2:30 PM,60.8,44.6,55,30.06,6.2,East,1.2,-,N/A,,Mostly Cloudy,80,2012-10-12 12:30:00
3:00 PM,59.0,44.6,59,30.06,6.2,NNE,5.8,-,N/A,,Mostly Cloudy,20,2012-10-12 13:00:00
3:30 PM,60.8,42.8,52,30.06,6.2,Variable,3.5,-,N/A,,Mostly Cloudy,0,2012-10-12 13:30:00
4:00 PM,60.8,44.6,55,30.06,6.2,NNE,8.1,-,N/A,,Mostly Cloudy,30,2012-10-12 14:00:00
4:30 PM,60.8,42.8,52,30.06,6.2,NNE,6.9,-,N/A,,Mostly Cloudy,30,2012-10-12 14:30:00
5:00 PM,62.6,42.8,48,30.06,6.2,NE,4.6,-,N/A,,Scattered Clouds,40,2012-10-12 15:00:00
5:30 PM,60.8,41.0,48,30.04,6.2,NE,5.8,-,N/A,,Scattered Clouds,50,2012-10-12 15:30:00
6:30 PM,60.8,41.0,48,30.04,6.2,ENE,3.5,-,N/A,,Partly Cloudy,70,2012-10-12 16:30:00
7:00 PM,60.8,41.0,48,30.04,6.2,Variable,2.3,-,N/A,,Partly Cloudy,0,2012-10-12 17:00:00
7:30 PM,59.0,41.0,51,30.04,6.2,NE,4.6,-,N/A,,Partly Cloudy,40,2012-10-12 17:30:00
8:00 PM,55.4,41.0,58,30.04,6.2,NNE,2.3,-,N/A,,Partly Cloudy,30,2012-10-12 18:00:00
8:30 PM,53.6,41.0,62,30.04,6.2,NNE,3.5,-,N/A,,Partly Cloudy,30,2012-10-12 18:30:00
9:00 PM,51.8,41.0,67,30.04,6.2,NNE,5.8,-,N/A,,Partly Cloudy,20,2012-10-12 19:00:00
10:00 PM,50.0,41.0,71,30.06,6.2,NE,5.8,-,N/A,,Partly Cloudy,40,2012-10-12 20:00:00
10:30 PM,50.0,42.8,76,30.06,-9999.0,East,8.1,-,N/A,,Clear,80,2012-10-12 20:30:00